This is the latest recevied weather packets stored in our database for station/object N4HAC. If no packets are shown the sender has not sent any weather packets the latest 10 day(s).
| Time | Temp. | Humidity | Pressure | Rain* | Wind** | Luminosity | Snow |
|---|---|---|---|---|---|---|---|
| 1778003138 | 26.67° C | 36% | 1004.7 hPa | 0 mm | - | 787 W/m² | - |
| 1778002834 | 27.22° C | 33% | 1005.1 hPa | 0 mm | - | 822 W/m² | - |
| 1778002531 | 27.22° C | 38% | 1005.2 hPa | 0 mm | - | 818 W/m² | - |
| 1778002228 | 27.22° C | 41% | 1005 hPa | 0 mm | - | 828 W/m² | - |
| 1778001926 | 26.67° C | 39% | 1005.2 hPa | 0 mm | - | 782 W/m² | - |
| 1778001621 | 26.67° C | 39% | 1005.3 hPa | 0 mm | - | 830 W/m² | - |
| 1778001317 | 26.67° C | 41% | 1005.3 hPa | 0 mm | - | 848 W/m² | - |
| 1778001014 | 26.11° C | 42% | 1005.4 hPa | 0 mm | - | 781 W/m² | - |
| 1778000711 | 26.11° C | 42% | 1005.3 hPa | 0 mm | - | 831 W/m² | - |
| 1778000407 | 26.67° C | 46% | 1005.3 hPa | 0 mm | - | 822 W/m² | - |
| 1778000102 | 26.11° C | 43% | 1005.5 hPa | 0 mm | - | 849 W/m² | - |
| 1777999798 | 25.56° C | 42% | 1005.7 hPa | 0 mm | - | 861 W/m² | - |
| 1777999494 | 26.11° C | 41% | 1005.6 hPa | 0 mm | - | 857 W/m² | - |
| 1777999192 | 25.56° C | 41% | 1005.8 hPa | 0 mm | - | 839 W/m² | - |
| 1777998891 | 25.56° C | 42% | 1005.9 hPa | 0 mm | - | 834 W/m² | - |
| 1777998590 | 25.56° C | 46% | 1005.8 hPa | 0 mm | - | 825 W/m² | - |
| 1777998285 | 25.56° C | 43% | 1005.9 hPa | 0 mm | - | 817 W/m² | - |
| 1777997982 | 25° C | 43% | 1006.1 hPa | 0 mm | - | 816 W/m² | - |
| 1777997678 | 25° C | 43% | 1006.2 hPa | 0 mm | - | 814 W/m² | - |
| 1777997376 | 25° C | 43% | 1006.1 hPa | 0 mm | - | 812 W/m² | - |
| 1777997075 | 25° C | 43% | 1006.4 hPa | 0 mm | - | 809 W/m² | - |
| 1777996770 | 25.56° C | 43% | 1006.4 hPa | 0 mm | - | 805 W/m² | - |
| 1777996467 | 25.56° C | 43% | 1006.5 hPa | 0 mm | - | 805 W/m² | - |
| 1777996164 | 25° C | 45% | 1006.8 hPa | 0 mm | - | 808 W/m² | - |
| 1777995860 | 25° C | 46% | 1006.8 hPa | 0 mm | - | 811 W/m² | - |
* Rain latest hour (hover to see other rain measurements)
** Current wind speed in m/s (hover to see current wind gust speed)